Location: Antichan
(42.9728°N, 0.6667°E)
Time: 09:46:15
(UTC+00:00)

Meteor 1-25 Rocket - Pass Details

Date: 15 August 2020
Orbit: 837 x 891 km, 81.2° (Epoch: 18 September)

Event Time Altitude Azimuth Distance (km) Brightness Sun altitude
Rises 20:16:24 0° 180° (S) 3,377 7.0 -13.5°
Reaches altitude 10° 20:18:48 10° 177° (S) 2,450 6.3 -13.8°
Maximum altitude 20:24:17 66° 96° (E) 922 4.2 -14.6°
Drops below altitude 10° 20:29:53 10° 16° (NNE) 2,496 6.9 -15.5°
Sets 20:32:21 0° 13° (NNE) 3,445 7.7 -15.8°
